Weather History for KHYA - June, 2013

Change the Weather History Date:

Friday, June 28, 2013

  Actual Average Record
Temperature  
Mean Temperature 70 °F -  
Max Temperature 72 °F 74 °F 92 °F (1963)
Min Temperature 68 °F 59 °F 40 °F (1962)
Cooling Degree Days 4    
Growing Degree Days 20 (Base 50)    
Moisture  
Dew Point 69 °F    
Average Humidity 97    
Maximum Humidity 100    
Minimum Humidity 93    
Precipitation  
Precipitation 0.28 in - - ()
Sea Level Pressure  
Sea Level Pressure 29.63 in    
Wind  
Wind Speed 11 mph (SSW)    
Max Wind Speed 21 mph    
Max Gust Speed 38 mph    
Visibility 2 miles    
Events Fog , Rain , Thunderstorm    
Averages and records for this station are not official NWS values.
T = Trace of Precipitation, MM = Missing Value Source: NWS Daily Summary

Daily Weather History Graph

Daily Weather History Graph

Search for Another Location

Airport or City:

Trip Planner

Search our weather history database for the weather conditions in past years. The results will help you decide how hot, cold, wet, or windy it might be!

Date:

Astronomy

Jun. 28, 2013 Rise Set
Actual Time 5:09 AM EDT 8:19 PM EDT
Civil Twilight 4:35 AM EDT 8:53 PM EDT
Nautical Twilight 3:51 AM EDT 9:37 PM EDT
Astronomical Twilight 2:58 AM EDT 10:29 PM EDT
Moon 11:41 PM EDT (6/28) 11:18 AM EDT (6/28)
Length of Visible Light 16h 18m
Length of Day
15h 10m
Waning Gibbous, 66% of the Moon is Illuminated
Jun 28
Waning Gibbous
Jun 30
Last Quarter
Jul 8
New
Jul 15
First Quarter
Jul 22
Full

Hourly Weather History & Observations

Time (EDT) Temp. Dew Point Humidity Pressure Visibility Wind Dir Wind Speed Gust Speed Precip Events Conditions
12:18 AM 69.8 °F 68.0 °F 94% 29.75 in 1.2 mi SSW 9.2 mph - N/A   Overcast
12:32 AM 68.0 °F 68.0 °F 100% 29.75 in 0.5 mi SSW 8.1 mph - N/A Fog Fog
12:46 AM 69.8 °F 68.0 °F 94% 29.74 in 0.2 mi South 5.8 mph - N/A Fog Fog
12:56 AM 69.1 °F 68.0 °F 96% 29.74 in 0.2 mi South 6.9 mph - N/A Fog Fog
1:19 AM 69.8 °F 69.8 °F 100% 29.72 in 0.5 mi Calm Calm - N/A Fog Fog
1:45 AM 69.8 °F 68.0 °F 94% 29.71 in 0.2 mi South 6.9 mph - N/A Fog Fog
1:53 AM 69.8 °F 68.0 °F 94% 29.71 in 0.5 mi SSE 4.6 mph - N/A Fog Fog
1:56 AM 69.1 °F 68.0 °F 96% 29.71 in 0.2 mi SSE 5.8 mph - N/A Fog Fog
2:24 AM 69.8 °F 68.0 °F 94% 29.68 in 9.0 mi SE 4.6 mph - 0.05 in   Overcast
2:37 AM 69.8 °F 68.0 °F 94% 29.68 in 8.0 mi SE 3.5 mph - 0.05 in Thunderstorm Overcast
2:56 AM 69.1 °F 69.1 °F 100% 29.68 in 2.5 mi South 5.8 mph - 0.10 in Rain , Thunderstorm Light Thunderstorms and Rain
3:03 AM 69.8 °F 69.8 °F 100% 29.66 in 4.0 mi South 10.4 mph 18.4 mph 0.02 in Rain , Thunderstorm Rain
3:25 AM 71.6 °F 69.8 °F 94% 29.66 in 6.0 mi South 11.5 mph 21.9 mph 0.02 in   Overcast
3:56 AM 71.1 °F 69.1 °F 93% 29.66 in 5.0 mi SSW 12.7 mph 20.7 mph 0.02 in   Overcast
4:30 AM 71.6 °F 69.8 °F 94% 29.65 in 2.0 mi SSW 11.5 mph 17.3 mph N/A   Overcast
4:39 AM 69.8 °F 69.8 °F 100% 29.64 in 1.5 mi SSW 10.4 mph 18.4 mph N/A   Overcast
4:54 AM 69.8 °F 69.8 °F 100% 29.65 in 0.8 mi SSW 11.5 mph - N/A   Overcast
4:56 AM 70.0 °F 69.1 °F 97% 29.65 in 0.8 mi SSW 12.7 mph - N/A   Overcast
5:18 AM 69.8 °F 69.8 °F 100% 29.65 in 1.0 mi SSW 12.7 mph 19.6 mph N/A   Overcast
5:31 AM 69.8 °F 69.8 °F 100% 29.65 in 0.8 mi SSW 12.7 mph - N/A   Overcast
5:45 AM 69.8 °F 69.8 °F 100% 29.65 in 1.2 mi SSW 13.8 mph 20.7 mph N/A   Overcast
5:56 AM 70.0 °F 70.0 °F 100% 29.65 in 0.8 mi SSW 12.7 mph 18.4 mph N/A   Overcast
6:08 AM 69.8 °F 69.8 °F 100% 29.64 in 1.8 mi SSW 10.4 mph 19.6 mph N/A   Overcast
6:14 AM 69.8 °F 69.8 °F 100% 29.64 in 3.0 mi SSW 10.4 mph 19.6 mph N/A   Overcast
6:56 AM 70.0 °F 69.1 °F 97% 29.63 in 3.0 mi South 12.7 mph 20.7 mph N/A   Overcast
7:16 AM 69.8 °F 69.8 °F 100% 29.63 in 2.5 mi South 15.0 mph 20.7 mph N/A   Overcast
7:29 AM 71.6 °F 69.8 °F 94% 29.63 in 3.0 mi South 11.5 mph 20.7 mph N/A   Overcast
7:48 AM 69.8 °F 69.8 °F 100% 29.63 in 2.0 mi South 12.7 mph 23.0 mph 0.02 in Rain Light Rain
7:56 AM 70.0 °F 69.1 °F 97% 29.63 in 4.0 mi South 16.1 mph 26.5 mph 0.02 in Rain Light Rain
8:16 AM 69.8 °F 69.8 °F 100% 29.62 in 5.0 mi South 18.4 mph 38.0 mph 0.00 in   Overcast
8:56 AM 70.0 °F 68.0 °F 93% 29.62 in 4.0 mi South 16.1 mph 26.5 mph 0.02 in Rain Light Rain
9:16 AM 69.8 °F 69.8 °F 100% 29.62 in 2.5 mi SSW 11.5 mph 23.0 mph 0.02 in Rain Light Rain
9:56 AM 70.0 °F 69.1 °F 97% 29.61 in 3.0 mi SSW 16.1 mph 24.2 mph 0.07 in Rain Light Rain
10:05 AM 69.8 °F 68.0 °F 94% 29.61 in 1.8 mi South 13.8 mph 24.2 mph 0.05 in Rain Heavy Rain
10:14 AM 69.8 °F 69.8 °F 100% 29.61 in 1.8 mi South 15.0 mph 26.5 mph 0.05 in Rain Light Rain
10:18 AM 69.8 °F 69.8 °F 100% 29.60 in 3.0 mi South 16.1 mph 26.5 mph 0.05 in Rain Light Rain
10:52 AM 69.8 °F 68.0 °F 94% 29.60 in 5.0 mi South 19.6 mph 25.3 mph 0.05 in   Overcast
10:56 AM 70.0 °F 68.0 °F 93% 29.60 in 5.0 mi South 13.8 mph 25.3 mph 0.05 in   Overcast
11:28 AM 69.8 °F 68.0 °F 94% 29.60 in 4.0 mi SSW 16.1 mph 24.2 mph N/A   Overcast
11:53 AM 71.6 °F 69.8 °F 94% 29.60 in 4.0 mi South 17.3 mph 24.2 mph N/A   Overcast
11:56 AM 70.0 °F 69.1 °F 97% 29.60 in 3.0 mi South 15.0 mph 24.2 mph N/A   Overcast
11:58 AM 69.8 °F 68.0 °F 94% 29.59 in 2.0 mi South 17.3 mph 24.2 mph N/A   Overcast
12:07 PM 69.8 °F 68.0 °F 94% 29.59 in 1.8 mi SSW 17.3 mph 25.3 mph N/A   Overcast
12:15 PM 69.8 °F 68.0 °F 94% 29.59 in 2.5 mi South 15.0 mph 26.5 mph N/A   Overcast
12:25 PM 69.8 °F 68.0 °F 94% 29.59 in 3.0 mi South 17.3 mph 25.3 mph N/A   Overcast
12:36 PM 69.8 °F 68.0 °F 94% 29.59 in 2.5 mi SSW 13.8 mph 27.6 mph N/A   Overcast
12:56 PM 70.0 °F 69.1 °F 97% 29.58 in 2.5 mi SSW 16.1 mph 25.3 mph N/A   Overcast
1:15 PM 71.6 °F 69.8 °F 94% 29.58 in 4.0 mi SSW 13.8 mph 23.0 mph N/A   Overcast
1:34 PM 71.6 °F 69.8 °F 94% 29.59 in 5.0 mi SSW 16.1 mph 21.9 mph N/A   Overcast
1:56 PM 70.0 °F 68.0 °F 93% 29.59 in 4.0 mi SSW 12.7 mph 23.0 mph N/A   Overcast
2:30 PM 69.8 °F 68.0 °F 94% 29.59 in 3.0 mi SSW 16.1 mph 26.5 mph N/A   Overcast
2:37 PM 69.8 °F 68.0 °F 94% 29.58 in 2.0 mi South 16.1 mph 27.6 mph N/A   Overcast
2:49 PM 69.8 °F 68.0 °F 94% 29.58 in 1.8 mi South 18.4 mph 27.6 mph N/A   Overcast
2:56 PM 70.0 °F 68.0 °F 93% 29.59 in 1.8 mi SSW 18.4 mph 27.6 mph N/A   Overcast
3:21 PM 69.8 °F 68.0 °F 94% 29.58 in 2.5 mi SSW 20.7 mph 27.6 mph N/A   Overcast
3:56 PM 70.0 °F 68.0 °F 93% 29.58 in 1.0 mi SSW 13.8 mph 27.6 mph N/A   Overcast
4:03 PM 69.8 °F 69.8 °F 100% 29.57 in 0.8 mi SSW 15.0 mph 24.2 mph N/A   Overcast
4:56 PM 69.1 °F 68.0 °F 96% 29.59 in 0.8 mi SSW 13.8 mph 23.0 mph N/A   Overcast
5:56 PM 70.0 °F 69.1 °F 97% 29.58 in 1.0 mi SSW 13.8 mph 21.9 mph N/A   Overcast
6:04 PM 69.8 °F 69.8 °F 100% 29.57 in 0.8 mi SSW 12.7 mph 23.0 mph N/A   Overcast
6:56 PM 69.1 °F 68.0 °F 96% 29.58 in 0.8 mi SSW 12.7 mph 20.7 mph N/A   Overcast
7:56 PM 69.1 °F 69.1 °F 100% 29.59 in 0.8 mi SSW 10.4 mph 18.4 mph N/A   Overcast
8:56 PM 69.1 °F 68.0 °F 96% 29.59 in 2.5 mi SSW 11.5 mph 18.4 mph N/A   Overcast
9:56 PM 70.0 °F 69.1 °F 97% 29.61 in 1.8 mi SSW 11.5 mph 20.7 mph N/A   Overcast
10:05 PM 69.8 °F 69.8 °F 100% 29.60 in 2.0 mi SSW 12.7 mph 20.7 mph N/A   Overcast
10:39 PM 69.8 °F 69.8 °F 100% 29.60 in 3.0 mi SSW 10.4 mph 20.7 mph N/A   Overcast
10:48 PM 69.8 °F 69.8 °F 100% 29.60 in 2.5 mi South 11.5 mph 19.6 mph N/A   Overcast
10:56 PM 70.0 °F 69.1 °F 97% 29.60 in 3.0 mi SSW 10.4 mph 18.4 mph N/A   Overcast
11:17 PM 69.8 °F 69.8 °F 100% 29.60 in 2.5 mi SSW 12.7 mph 21.9 mph N/A   Overcast
11:27 PM 69.8 °F 68.0 °F 94% 29.60 in 1.0 mi South 12.7 mph 21.9 mph N/A   Overcast
11:35 PM 69.8 °F 69.8 °F 100% 29.60 in 0.8 mi SSW 9.2 mph 19.6 mph N/A   Overcast
11:47 PM 69.8 °F 69.8 °F 100% 29.60 in 1.0 mi SSW 10.4 mph - N/A   Overcast
11:56 PM 69.1 °F 69.1 °F 100% 29.61 in 1.2 mi SSW 11.5 mph 17.3 mph N/A   Overcast